Year,Month,Day,Hour,Minute,Value (Times are PST for temperature in C)
2009,09,24,00,00,18.40
2009,09,24,00,01,18.30
2009,09,24,00,02,18.30
2009,09,24,00,03,18.30
2009,09,24,00,04,18.20
2009,09,24,00,05,18.20
2009,09,24,00,06,18.20
2009,09,24,00,07,18.20
2009,09,24,00,08,18.10
2009,09,24,00,09,18.10
2009,09,24,00,10,18.10
2009,09,24,00,11,18.00
2009,09,24,00,12,18.00
2009,09,24,00,13,17.90
2009,09,24,00,14,17.90
2009,09,24,00,15,17.80
2009,09,24,00,16,17.80
2009,09,24,00,17,17.70
2009,09,24,00,18,17.70
2009,09,24,00,19,17.60
2009,09,24,00,20,17.60
2009,09,24,00,21,17.50
2009,09,24,00,22,17.50
2009,09,24,00,23,17.40
2009,09,24,00,24,17.40
2009,09,24,00,25,17.40
2009,09,24,00,26,17.40
2009,09,24,00,27,17.30
2009,09,24,00,28,17.30
2009,09,24,00,29,17.30
2009,09,24,00,30,17.30
2009,09,24,00,31,17.30
2009,09,24,00,32,17.30
2009,09,24,00,33,17.20
2009,09,24,00,34,17.20
2009,09,24,00,35,17.20
2009,09,24,00,36,17.20
2009,09,24,00,37,17.20
2009,09,24,00,38,17.20
2009,09,24,00,39,17.20
2009,09,24,00,40,17.20
2009,09,24,00,41,17.10
2009,09,24,00,42,17.10
2009,09,24,00,43,17.10
2009,09,24,00,44,17.00
2009,09,24,00,45,17.00
2009,09,24,00,46,17.00
2009,09,24,00,47,16.90
2009,09,24,00,48,16.90
2009,09,24,00,49,16.90
2009,09,24,00,50,16.80
2009,09,24,00,51,16.80
2009,09,24,00,52,16.80
2009,09,24,00,53,16.80
2009,09,24,00,54,16.80
2009,09,24,00,55,16.70
2009,09,24,00,56,16.70
2009,09,24,00,57,16.70
2009,09,24,00,58,16.70
2009,09,24,00,59,16.60
2009,09,24,01,00,16.60
2009,09,24,01,01,16.60
2009,09,24,01,02,16.60
2009,09,24,01,03,16.50
2009,09,24,01,04,16.50
2009,09,24,01,05,16.40
2009,09,24,01,06,16.40
2009,09,24,01,07,16.30
2009,09,24,01,08,16.30
2009,09,24,01,09,16.30
2009,09,24,01,10,16.30
2009,09,24,01,11,16.30
2009,09,24,01,12,16.30
2009,09,24,01,13,16.30
2009,09,24,01,14,16.30
2009,09,24,01,15,16.20
2009,09,24,01,16,16.20
2009,09,24,01,17,16.20
2009,09,24,01,18,16.20
2009,09,24,01,19,16.10
2009,09,24,01,20,16.10
2009,09,24,01,21,16.10
2009,09,24,01,22,16.10
2009,09,24,01,23,16.10
2009,09,24,01,24,16.10
2009,09,24,01,25,16.10
2009,09,24,01,26,16.00
2009,09,24,01,27,16.00
2009,09,24,01,28,16.00
2009,09,24,01,29,16.00
2009,09,24,01,30,16.00
2009,09,24,01,31,16.00
2009,09,24,01,32,16.00
2009,09,24,01,33,16.00
2009,09,24,01,34,16.00
2009,09,24,01,35,16.00
2009,09,24,01,36,16.00
2009,09,24,01,37,16.00
2009,09,24,01,38,16.00
2009,09,24,01,39,16.00
2009,09,24,01,40,15.90
2009,09,24,01,41,15.90
2009,09,24,01,42,15.90
2009,09,24,01,43,15.90
2009,09,24,01,44,15.90
2009,09,24,01,45,15.80
2009,09,24,01,46,15.80
2009,09,24,01,47,15.80
2009,09,24,01,48,15.80
2009,09,24,01,49,15.80
2009,09,24,01,50,15.80
2009,09,24,01,51,15.80
2009,09,24,01,52,15.80
2009,09,24,01,53,15.80
2009,09,24,01,54,15.80
2009,09,24,01,55,15.80
2009,09,24,01,56,15.80
2009,09,24,01,57,15.70
2009,09,24,01,58,15.70
2009,09,24,01,59,15.70
2009,09,24,02,00,15.70
2009,09,24,02,01,15.70
2009,09,24,02,02,15.60
2009,09,24,02,03,15.60
2009,09,24,02,04,15.60
2009,09,24,02,05,15.60
2009,09,24,02,06,15.60
2009,09,24,02,07,15.60
2009,09,24,02,08,15.60
2009,09,24,02,09,15.60
2009,09,24,02,10,15.50
2009,09,24,02,11,15.60
2009,09,24,02,12,15.60
2009,09,24,02,13,15.60
2009,09,24,02,14,15.60
2009,09,24,02,15,15.60
2009,09,24,02,16,15.60
2009,09,24,02,17,15.60
2009,09,24,02,18,15.60
2009,09,24,02,19,15.60
2009,09,24,02,20,15.60
2009,09,24,02,21,15.60
2009,09,24,02,22,15.60
2009,09,24,02,23,15.60
2009,09,24,02,24,15.60
2009,09,24,02,25,15.60
2009,09,24,02,26,15.60
2009,09,24,02,27,15.60
2009,09,24,02,28,15.60
2009,09,24,02,29,15.60
2009,09,24,02,30,15.60
2009,09,24,02,31,15.60
2009,09,24,02,32,15.70
2009,09,24,02,33,15.70
2009,09,24,02,34,15.60
2009,09,24,02,35,15.60
2009,09,24,02,36,15.60
2009,09,24,02,37,15.60
2009,09,24,02,38,15.70
2009,09,24,02,39,15.70
2009,09,24,02,40,15.70
2009,09,24,02,41,15.70
2009,09,24,02,42,15.70
2009,09,24,02,43,15.70
2009,09,24,02,44,15.70
2009,09,24,02,45,15.70
2009,09,24,02,46,15.70
2009,09,24,02,47,15.70
2009,09,24,02,48,15.70
2009,09,24,02,49,15.70
2009,09,24,02,50,15.80
2009,09,24,02,51,15.80
2009,09,24,02,52,15.80
2009,09,24,02,53,15.80
2009,09,24,02,54,15.80
2009,09,24,02,55,15.80
2009,09,24,02,56,15.80
2009,09,24,02,57,15.80
2009,09,24,02,58,15.80
2009,09,24,02,59,15.80
2009,09,24,03,00,15.80
2009,09,24,03,01,15.80
2009,09,24,03,02,15.80
2009,09,24,03,03,15.80
2009,09,24,03,04,15.80
2009,09,24,03,05,15.80
2009,09,24,03,06,15.80
2009,09,24,03,07,15.80
2009,09,24,03,08,15.80
2009,09,24,03,09,15.80
2009,09,24,03,10,15.80
2009,09,24,03,11,15.80
2009,09,24,03,12,15.80
2009,09,24,03,13,15.80
2009,09,24,03,14,15.80
2009,09,24,03,15,15.80
2009,09,24,03,16,15.80
2009,09,24,03,17,15.80
2009,09,24,03,18,15.80
2009,09,24,03,19,15.80
2009,09,24,03,20,15.70
2009,09,24,03,21,15.70
2009,09,24,03,22,15.70
2009,09,24,03,23,15.70
2009,09,24,03,24,15.70
2009,09,24,03,25,15.70
2009,09,24,03,26,15.70
2009,09,24,03,27,15.70
2009,09,24,03,28,15.60
2009,09,24,03,29,15.60
2009,09,24,03,30,15.60
2009,09,24,03,31,15.60
2009,09,24,03,32,15.60
2009,09,24,03,33,15.60
2009,09,24,03,34,15.60
2009,09,24,03,35,15.60
2009,09,24,03,36,15.60
2009,09,24,03,37,15.60
2009,09,24,03,38,15.60
2009,09,24,03,39,15.60
2009,09,24,03,40,15.60
2009,09,24,03,41,15.60
2009,09,24,03,42,15.60
2009,09,24,03,43,15.60
2009,09,24,03,44,15.60
2009,09,24,03,45,15.60
2009,09,24,03,46,15.60
2009,09,24,03,47,15.60
2009,09,24,03,48,15.60
2009,09,24,03,49,15.60
2009,09,24,03,50,15.60
2009,09,24,03,51,15.60
2009,09,24,03,52,15.60
2009,09,24,03,53,15.60
2009,09,24,03,54,15.60
2009,09,24,03,55,15.60
2009,09,24,03,56,15.70
2009,09,24,03,57,15.70
2009,09,24,03,58,15.70
2009,09,24,03,59,15.70
2009,09,24,04,00,15.70
2009,09,24,04,01,15.60
2009,09,24,04,02,15.60
2009,09,24,04,03,15.60
2009,09,24,04,04,15.60
2009,09,24,04,05,15.60
2009,09,24,04,06,15.60
2009,09,24,04,07,15.50
2009,09,24,04,08,15.50
2009,09,24,04,09,15.40
2009,09,24,04,10,15.40
2009,09,24,04,11,15.30
2009,09,24,04,12,15.30
2009,09,24,04,13,15.30
2009,09,24,04,14,15.20
2009,09,24,04,15,15.10
2009,09,24,04,16,15.00
2009,09,24,04,17,15.00
2009,09,24,04,18,15.00
2009,09,24,04,19,15.00
2009,09,24,04,20,15.00
2009,09,24,04,21,15.00
2009,09,24,04,22,15.00
2009,09,24,04,23,14.90
2009,09,24,04,24,14.90
2009,09,24,04,25,14.80
2009,09,24,04,26,14.80
2009,09,24,04,27,14.70
2009,09,24,04,28,14.70
2009,09,24,04,29,14.70
2009,09,24,04,30,14.60
2009,09,24,04,31,14.60
2009,09,24,04,32,14.60
2009,09,24,04,33,14.50
2009,09,24,04,34,14.50
2009,09,24,04,35,14.40
2009,09,24,04,36,14.40
2009,09,24,04,37,14.40
2009,09,24,04,38,14.40
2009,09,24,04,39,14.30
2009,09,24,04,40,14.30
2009,09,24,04,41,14.30
2009,09,24,04,42,14.30
2009,09,24,04,43,14.30
2009,09,24,04,44,14.30
2009,09,24,04,45,14.30
2009,09,24,04,46,14.20
2009,09,24,04,47,14.20
2009,09,24,04,48,14.20
2009,09,24,04,49,14.20
2009,09,24,04,50,14.20
2009,09,24,04,51,14.20
2009,09,24,04,52,14.20
2009,09,24,04,53,14.10
2009,09,24,04,54,14.10
2009,09,24,04,55,14.10
2009,09,24,04,56,14.10
2009,09,24,04,57,14.10
2009,09,24,04,58,14.00
2009,09,24,04,59,14.00
2009,09,24,05,00,14.00
2009,09,24,05,01,14.10
2009,09,24,05,02,14.10
2009,09,24,05,03,14.10
2009,09,24,05,04,14.10
2009,09,24,05,05,14.00
2009,09,24,05,06,14.00
2009,09,24,05,07,14.00
2009,09,24,05,08,14.00
2009,09,24,05,09,14.00
2009,09,24,05,10,13.90
2009,09,24,05,11,13.90
2009,09,24,05,12,13.90
2009,09,24,05,13,13.90
2009,09,24,05,14,13.90
2009,09,24,05,15,13.90
2009,09,24,05,16,13.90
2009,09,24,05,17,13.90
2009,09,24,05,18,13.90
2009,09,24,05,19,13.80
2009,09,24,05,20,13.80
2009,09,24,05,21,13.80
2009,09,24,05,22,13.80
2009,09,24,05,23,13.80
2009,09,24,05,24,13.80
2009,09,24,05,25,13.80
2009,09,24,05,26,13.90
2009,09,24,05,27,13.90
2009,09,24,05,28,13.90
2009,09,24,05,29,13.90
2009,09,24,05,30,13.90
2009,09,24,05,31,13.90
2009,09,24,05,32,13.90
2009,09,24,05,33,13.90
2009,09,24,05,34,13.80
2009,09,24,05,35,13.80
2009,09,24,05,36,13.80
2009,09,24,05,37,13.80
2009,09,24,05,38,13.80
2009,09,24,05,39,13.80
2009,09,24,05,40,13.80
2009,09,24,05,41,13.80
2009,09,24,05,42,13.80
2009,09,24,05,43,13.70
2009,09,24,05,44,13.70
2009,09,24,05,45,13.70
2009,09,24,05,46,13.70
2009,09,24,05,47,13.70
2009,09,24,05,48,13.70
2009,09,24,05,49,13.70
2009,09,24,05,50,13.70
2009,09,24,05,51,13.70
2009,09,24,05,52,13.70
2009,09,24,05,53,13.60
2009,09,24,05,54,13.60
2009,09,24,05,55,13.60
2009,09,24,05,56,13.60
2009,09,24,05,57,13.60
2009,09,24,05,58,13.60
2009,09,24,05,59,13.60
2009,09,24,06,00,13.60
2009,09,24,06,01,13.60
2009,09,24,06,02,13.60
2009,09,24,06,03,13.60
2009,09,24,06,04,13.60
2009,09,24,06,05,13.60
2009,09,24,06,06,13.60
2009,09,24,06,07,13.50
2009,09,24,06,08,13.50
2009,09,24,06,09,13.50
2009,09,24,06,10,13.40
2009,09,24,06,11,13.40
2009,09,24,06,12,13.40
2009,09,24,06,13,13.40
2009,09,24,06,14,13.40
2009,09,24,06,15,13.30
2009,09,24,06,16,13.30
2009,09,24,06,17,13.30
2009,09,24,06,18,13.30
2009,09,24,06,19,13.30
2009,09,24,06,20,13.30
2009,09,24,06,21,13.40
2009,09,24,06,22,13.40
2009,09,24,06,23,13.40
2009,09,24,06,24,13.40
2009,09,24,06,25,13.40
2009,09,24,06,26,13.40
2009,09,24,06,27,13.40
2009,09,24,06,28,13.40
2009,09,24,06,29,13.30
2009,09,24,06,30,13.30
2009,09,24,06,31,13.30
2009,09,24,06,32,13.30
2009,09,24,06,33,13.30
2009,09,24,06,34,13.30
2009,09,24,06,35,13.30
2009,09,24,06,36,13.20
2009,09,24,06,37,13.20
2009,09,24,06,38,13.20
2009,09,24,06,39,13.20
2009,09,24,06,40,13.20
2009,09,24,06,41,13.20
2009,09,24,06,42,13.30
2009,09,24,06,43,13.30
2009,09,24,06,44,13.30
2009,09,24,06,45,13.30
2009,09,24,06,46,13.30
2009,09,24,06,47,13.30
2009,09,24,06,48,13.30
2009,09,24,06,49,13.30
2009,09,24,06,50,13.30
2009,09,24,06,51,13.20
2009,09,24,06,52,13.20
2009,09,24,06,53,13.20
2009,09,24,06,54,13.20
2009,09,24,06,55,13.20
2009,09,24,06,56,13.20
2009,09,24,06,57,13.30
2009,09,24,06,58,13.30
2009,09,24,06,59,13.30
2009,09,24,07,00,13.30
2009,09,24,07,01,13.30
2009,09,24,07,02,13.30
2009,09,24,07,03,13.30
2009,09,24,07,04,13.30
2009,09,24,07,05,13.20
2009,09,24,07,06,13.20
2009,09,24,07,07,13.20
2009,09,24,07,08,13.20
2009,09,24,07,09,13.20
2009,09,24,07,10,13.20
2009,09,24,07,11,13.20
2009,09,24,07,12,13.10
2009,09,24,07,13,13.10
2009,09,24,07,14,13.10
2009,09,24,07,15,13.10
2009,09,24,07,16,13.10
2009,09,24,07,17,13.10
2009,09,24,07,18,13.10
2009,09,24,07,19,13.00
2009,09,24,07,20,13.00
2009,09,24,07,21,13.00
2009,09,24,07,22,13.00
2009,09,24,07,23,13.00
2009,09,24,07,24,13.00
2009,09,24,07,25,13.00
2009,09,24,07,26,13.00
2009,09,24,07,27,12.90
2009,09,24,07,28,12.90
2009,09,24,07,29,13.00
2009,09,24,07,30,13.00
2009,09,24,07,31,13.00
2009,09,24,07,32,13.00
2009,09,24,07,33,13.00
2009,09,24,07,34,13.00
2009,09,24,07,35,13.00
2009,09,24,07,36,13.00
2009,09,24,07,37,13.00
2009,09,24,07,38,13.00
2009,09,24,07,39,12.90
2009,09,24,07,40,12.90
2009,09,24,07,41,12.90
2009,09,24,07,42,13.00
2009,09,24,07,43,13.00
2009,09,24,07,44,13.00
2009,09,24,07,45,13.00
2009,09,24,07,46,13.00
2009,09,24,07,47,13.00
2009,09,24,07,48,13.00
2009,09,24,07,49,13.00
2009,09,24,07,50,13.00
2009,09,24,07,51,13.00
2009,09,24,07,52,13.10
2009,09,24,07,53,13.10
2009,09,24,07,54,13.10
2009,09,24,07,55,13.10
2009,09,24,07,56,13.20
2009,09,24,07,57,13.20
2009,09,24,07,58,13.20
2009,09,24,07,59,13.20
2009,09,24,08,00,13.20
2009,09,24,08,01,13.20
2009,09,24,08,02,13.20
2009,09,24,08,03,13.20
2009,09,24,08,04,13.20
2009,09,24,08,05,13.30
2009,09,24,08,06,13.30
2009,09,24,08,07,13.30
2009,09,24,08,08,13.30
2009,09,24,08,09,13.30
2009,09,24,08,10,13.30
2009,09,24,08,11,13.30
2009,09,24,08,12,13.30
2009,09,24,08,13,13.40
2009,09,24,08,14,13.40
2009,09,24,08,15,13.40
2009,09,24,08,16,13.40
2009,09,24,08,17,13.40
2009,09,24,08,18,13.40
2009,09,24,08,19,13.40
2009,09,24,08,20,13.50
2009,09,24,08,21,13.50
2009,09,24,08,22,13.50
2009,09,24,08,23,13.50
2009,09,24,08,24,13.60
2009,09,24,08,25,13.60
2009,09,24,08,26,13.60
2009,09,24,08,27,13.60
2009,09,24,08,28,13.60
2009,09,24,08,29,13.60
2009,09,24,08,30,13.60
2009,09,24,08,31,13.60
2009,09,24,08,32,13.60
2009,09,24,08,33,13.60
2009,09,24,08,34,13.60
2009,09,24,08,35,13.60
2009,09,24,08,36,13.60
2009,09,24,08,37,13.60
2009,09,24,08,38,13.60
2009,09,24,08,39,13.60
2009,09,24,08,40,13.60
2009,09,24,08,41,13.60
2009,09,24,08,42,13.60
2009,09,24,08,43,13.60
2009,09,24,08,44,13.60
2009,09,24,08,45,13.60
2009,09,24,08,46,13.60
2009,09,24,08,47,13.60
2009,09,24,08,48,13.60
2009,09,24,08,49,13.60
2009,09,24,08,50,13.60
2009,09,24,08,51,13.60
2009,09,24,08,52,13.70
2009,09,24,08,53,13.70
2009,09,24,08,54,13.70
2009,09,24,08,55,13.70
2009,09,24,08,56,13.70
2009,09,24,08,57,13.70
2009,09,24,08,58,13.70
2009,09,24,08,59,13.70
2009,09,24,09,00,13.70
2009,09,24,09,01,13.70
2009,09,24,09,02,13.70
2009,09,24,09,03,13.70
2009,09,24,09,04,13.70
2009,09,24,09,05,13.70
2009,09,24,09,06,13.80
2009,09,24,09,07,13.80
2009,09,24,09,08,13.80
2009,09,24,09,09,13.80
2009,09,24,09,10,13.80
2009,09,24,09,11,13.80
2009,09,24,09,12,13.80
2009,09,24,09,13,13.80
2009,09,24,09,14,13.80
2009,09,24,09,15,13.80
2009,09,24,09,16,13.80
2009,09,24,09,17,13.80
2009,09,24,09,18,13.90
2009,09,24,09,19,13.90
2009,09,24,09,20,13.90
2009,09,24,09,21,13.90
2009,09,24,09,22,13.90
2009,09,24,09,23,13.90
2009,09,24,09,24,13.90
2009,09,24,09,25,13.90
2009,09,24,09,26,13.90
2009,09,24,09,27,14.00
2009,09,24,09,28,14.00
2009,09,24,09,29,14.00
2009,09,24,09,30,14.00
2009,09,24,09,31,14.00
2009,09,24,09,32,14.00
2009,09,24,09,33,14.00
2009,09,24,09,34,14.00
2009,09,24,09,35,14.00
2009,09,24,09,36,14.00
2009,09,24,09,37,14.00
2009,09,24,09,38,14.10
2009,09,24,09,39,14.10
2009,09,24,09,40,14.10
2009,09,24,09,41,14.20
2009,09,24,09,42,14.20
2009,09,24,09,43,14.20
2009,09,24,09,44,14.20
2009,09,24,09,45,14.30
2009,09,24,09,46,14.30
2009,09,24,09,47,14.30
2009,09,24,09,48,14.40
2009,09,24,09,49,14.40
2009,09,24,09,50,14.50
2009,09,24,09,51,14.50
2009,09,24,09,52,14.50
2009,09,24,09,53,14.50
2009,09,24,09,54,14.50
2009,09,24,09,55,14.50
2009,09,24,09,56,14.40
2009,09,24,09,57,14.40
2009,09,24,09,58,14.40
2009,09,24,09,59,14.50
2009,09,24,10,00,14.50
2009,09,24,10,01,14.50
2009,09,24,10,02,14.60
2009,09,24,10,03,14.60
2009,09,24,10,04,14.70
2009,09,24,10,05,14.70
2009,09,24,10,06,14.70
2009,09,24,10,07,14.70
2009,09,24,10,08,14.70
2009,09,24,10,09,14.70
2009,09,24,10,10,14.70
2009,09,24,10,11,14.80
2009,09,24,10,12,14.80
2009,09,24,10,13,14.90
2009,09,24,10,14,14.90
2009,09,24,10,15,14.90
2009,09,24,10,16,14.90
2009,09,24,10,17,14.90
2009,09,24,10,18,15.00
2009,09,24,10,19,15.00
2009,09,24,10,20,15.00
2009,09,24,10,21,15.00
2009,09,24,10,22,15.00
2009,09,24,10,23,15.00
2009,09,24,10,24,15.00
2009,09,24,10,25,15.00
2009,09,24,10,26,15.00
2009,09,24,10,27,15.00
2009,09,24,10,28,15.00
2009,09,24,10,29,15.00
2009,09,24,10,30,15.00
2009,09,24,10,31,15.00
2009,09,24,10,32,15.00
2009,09,24,10,33,15.00
2009,09,24,10,34,15.10
2009,09,24,10,35,15.10
2009,09,24,10,36,15.10
2009,09,24,10,37,15.20
2009,09,24,10,38,15.20
2009,09,24,10,39,15.20
2009,09,24,10,40,15.20
2009,09,24,10,41,15.20
2009,09,24,10,42,15.30
2009,09,24,10,43,15.30
2009,09,24,10,44,15.30
2009,09,24,10,45,15.30
2009,09,24,10,46,15.20
2009,09,24,10,47,15.20
2009,09,24,10,48,15.20
2009,09,24,10,49,15.20
2009,09,24,10,50,15.20
2009,09,24,10,51,15.20
2009,09,24,10,52,15.20
2009,09,24,10,53,15.20
2009,09,24,10,54,15.30
2009,09,24,10,55,15.40
2009,09,24,10,56,15.40
2009,09,24,10,57,15.30
2009,09,24,10,58,15.30
2009,09,24,10,59,15.20
2009,09,24,11,00,15.20
2009,09,24,11,01,15.20
2009,09,24,11,02,15.30
2009,09,24,11,03,15.30
2009,09,24,11,04,15.40
2009,09,24,11,05,15.40
2009,09,24,11,06,15.40
2009,09,24,11,07,15.50
2009,09,24,11,08,15.60
2009,09,24,11,09,15.60
2009,09,24,11,10,15.70
2009,09,24,11,11,15.70
2009,09,24,11,12,15.70
2009,09,24,11,13,15.70
2009,09,24,11,14,15.70
2009,09,24,11,15,15.70
2009,09,24,11,16,15.70
2009,09,24,11,17,15.70
2009,09,24,11,18,15.70
2009,09,24,11,19,15.70
2009,09,24,11,20,15.70
2009,09,24,11,21,15.60
2009,09,24,11,22,15.60
2009,09,24,11,23,15.70
2009,09,24,11,24,15.80
2009,09,24,11,25,15.80
2009,09,24,11,26,15.80
2009,09,24,11,27,15.90
2009,09,24,11,28,15.90
2009,09,24,11,29,15.80
2009,09,24,11,30,15.80
2009,09,24,11,31,15.80
2009,09,24,11,32,15.80
2009,09,24,11,33,15.80
2009,09,24,11,34,15.90
2009,09,24,11,35,16.00
2009,09,24,11,36,16.10
2009,09,24,11,37,16.10
2009,09,24,11,38,16.10
2009,09,24,11,39,16.10
2009,09,24,11,40,16.10
2009,09,24,11,41,16.10
2009,09,24,11,42,16.10
2009,09,24,11,43,16.20
2009,09,24,11,44,16.20
2009,09,24,11,45,16.20
2009,09,24,11,46,16.10
2009,09,24,11,47,16.10
2009,09,24,11,48,16.10
2009,09,24,11,49,16.00
2009,09,24,11,50,15.90
2009,09,24,11,51,15.90
2009,09,24,11,52,15.90
2009,09,24,11,53,15.90
2009,09,24,11,54,15.80
2009,09,24,11,55,15.80
2009,09,24,11,56,15.70
2009,09,24,11,57,15.70
2009,09,24,11,58,15.70
2009,09,24,11,59,15.70
2009,09,24,12,00,15.60
2009,09,24,12,01,15.50
2009,09,24,12,02,15.40
2009,09,24,12,03,15.40
2009,09,24,12,04,15.40
2009,09,24,12,05,15.40
2009,09,24,12,06,15.40
2009,09,24,12,07,15.40
2009,09,24,12,08,15.50
2009,09,24,12,09,15.50
2009,09,24,12,10,15.50
2009,09,24,12,11,15.50
2009,09,24,12,12,15.60
2009,09,24,12,13,15.70
2009,09,24,12,14,15.70
2009,09,24,12,15,15.70
2009,09,24,12,16,15.70
2009,09,24,12,17,15.80
2009,09,24,12,18,15.80
2009,09,24,12,19,15.80
2009,09,24,12,20,15.80
2009,09,24,12,21,15.70
2009,09,24,12,22,15.70
2009,09,24,12,23,15.70
2009,09,24,12,24,15.80
2009,09,24,12,25,15.80
2009,09,24,12,26,15.70
2009,09,24,12,27,15.70
2009,09,24,12,28,15.70
2009,09,24,12,29,15.80
2009,09,24,12,30,15.90
2009,09,24,12,31,15.90
2009,09,24,12,32,15.90
2009,09,24,12,33,15.90
2009,09,24,12,34,16.00
2009,09,24,12,35,16.00
2009,09,24,12,36,16.10
2009,09,24,12,37,16.10
2009,09,24,12,38,16.20
2009,09,24,12,39,16.20
2009,09,24,12,40,16.10
2009,09,24,12,41,16.10
2009,09,24,12,42,16.10
2009,09,24,12,43,16.20
2009,09,24,12,44,16.30
2009,09,24,12,45,16.30
2009,09,24,12,46,16.30
2009,09,24,12,47,16.20
2009,09,24,12,48,16.10
2009,09,24,12,49,16.10
2009,09,24,12,50,16.20
2009,09,24,12,51,16.30
2009,09,24,12,52,16.30
2009,09,24,12,53,16.40
2009,09,24,12,54,16.40
2009,09,24,12,55,16.40
2009,09,24,12,56,16.40
2009,09,24,12,57,16.40
2009,09,24,12,58,16.40
2009,09,24,12,59,16.30
2009,09,24,13,00,16.30
2009,09,24,13,01,16.30
2009,09,24,13,02,16.30
2009,09,24,13,03,16.20
2009,09,24,13,04,16.30
2009,09,24,13,05,16.30
2009,09,24,13,06,16.30
2009,09,24,13,07,16.40
2009,09,24,13,08,16.40
2009,09,24,13,09,16.50
2009,09,24,13,10,16.60
2009,09,24,13,11,16.60
2009,09,24,13,12,16.60
2009,09,24,13,13,16.60
2009,09,24,13,14,16.60
2009,09,24,13,15,16.60
2009,09,24,13,16,16.50
2009,09,24,13,17,16.50
2009,09,24,13,18,16.50
2009,09,24,13,19,16.60
2009,09,24,13,20,16.60
2009,09,24,13,21,16.60
2009,09,24,13,22,16.60
2009,09,24,13,23,16.70
2009,09,24,13,24,16.70
2009,09,24,13,25,16.60
2009,09,24,13,26,16.60
2009,09,24,13,27,16.40
2009,09,24,13,28,16.40
2009,09,24,13,29,16.40
2009,09,24,13,30,16.40
2009,09,24,13,31,16.40
2009,09,24,13,32,16.30
2009,09,24,13,33,16.30
2009,09,24,13,34,16.30
2009,09,24,13,35,16.30
2009,09,24,13,36,16.30
2009,09,24,13,37,16.40
2009,09,24,13,38,16.40
2009,09,24,13,39,16.50
2009,09,24,13,40,16.60
2009,09,24,13,41,16.60
2009,09,24,13,42,16.70
2009,09,24,13,43,16.70
2009,09,24,13,44,16.70
2009,09,24,13,45,16.70
2009,09,24,13,46,16.70
2009,09,24,13,47,16.70
2009,09,24,13,48,16.80
2009,09,24,13,49,16.70
2009,09,24,13,50,16.70
2009,09,24,13,51,16.70
2009,09,24,13,52,16.70
2009,09,24,13,53,16.80
2009,09,24,13,54,16.90
2009,09,24,13,55,16.90
2009,09,24,13,56,16.90
2009,09,24,13,57,16.80
2009,09,24,13,58,16.80
2009,09,24,13,59,16.80
2009,09,24,14,00,16.70
2009,09,24,14,01,16.70
2009,09,24,14,02,16.80
2009,09,24,14,03,16.80
2009,09,24,14,04,16.90
2009,09,24,14,05,16.90
2009,09,24,14,06,16.90
2009,09,24,14,07,16.90
2009,09,24,14,08,17.00
2009,09,24,14,09,17.00
2009,09,24,14,10,17.00
2009,09,24,14,11,17.00
2009,09,24,14,12,16.90
2009,09,24,14,13,16.90
2009,09,24,14,14,16.90
2009,09,24,14,15,16.90
2009,09,24,14,16,17.00
2009,09,24,14,17,17.10
2009,09,24,14,18,17.10
2009,09,24,14,19,17.00
2009,09,24,14,20,17.10
2009,09,24,14,21,17.10
2009,09,24,14,22,17.10
2009,09,24,14,23,17.00
2009,09,24,14,24,17.00
2009,09,24,14,25,16.90
2009,09,24,14,26,16.90
2009,09,24,14,27,17.00
2009,09,24,14,28,17.00
2009,09,24,14,29,17.10
2009,09,24,14,30,17.20
2009,09,24,14,31,17.30
2009,09,24,14,32,17.50
2009,09,24,14,33,17.60
2009,09,24,14,34,17.60
2009,09,24,14,35,17.60
2009,09,24,14,36,17.60
2009,09,24,14,37,17.60
2009,09,24,14,38,17.60
2009,09,24,14,39,17.60
2009,09,24,14,40,17.60
2009,09,24,14,41,17.50
2009,09,24,14,42,17.40
2009,09,24,14,43,17.40
2009,09,24,14,44,17.30
2009,09,24,14,45,17.30
2009,09,24,14,46,17.30
2009,09,24,14,47,17.30
2009,09,24,14,48,17.30
2009,09,24,14,49,17.30
2009,09,24,14,50,17.40
2009,09,24,14,51,17.30
2009,09,24,14,52,17.30
2009,09,24,14,53,17.30
2009,09,24,14,54,17.20
2009,09,24,14,55,17.30
2009,09,24,14,56,17.30
2009,09,24,14,57,17.30
2009,09,24,14,58,17.30
2009,09,24,14,59,17.30
2009,09,24,15,00,17.40
2009,09,24,15,01,17.50
2009,09,24,15,02,17.50
2009,09,24,15,03,17.50
2009,09,24,15,04,17.50
2009,09,24,15,05,17.50
2009,09,24,15,06,17.60
2009,09,24,15,07,17.70
2009,09,24,15,08,17.70
2009,09,24,15,09,17.70
2009,09,24,15,10,17.70
2009,09,24,15,11,17.70
2009,09,24,15,12,17.70
2009,09,24,15,13,17.70
2009,09,24,15,14,17.70
2009,09,24,15,15,17.70
2009,09,24,15,16,17.70
2009,09,24,15,17,17.70
2009,09,24,15,18,17.70
2009,09,24,15,19,17.80
2009,09,24,15,20,17.80
2009,09,24,15,21,17.80
2009,09,24,15,22,17.80
2009,09,24,15,23,17.70
2009,09,24,15,24,17.70
2009,09,24,15,25,17.80
2009,09,24,15,26,17.80
2009,09,24,15,27,17.80
2009,09,24,15,28,17.80
2009,09,24,15,29,17.70
2009,09,24,15,30,17.70
2009,09,24,15,31,17.60
2009,09,24,15,32,17.60
2009,09,24,15,33,17.60
2009,09,24,15,34,17.60
2009,09,24,15,35,17.60
2009,09,24,15,36,17.70
2009,09,24,15,37,17.70
2009,09,24,15,38,17.80
2009,09,24,15,39,17.80
2009,09,24,15,40,17.90
2009,09,24,15,41,18.00
2009,09,24,15,42,18.10
2009,09,24,15,43,18.10
2009,09,24,15,44,18.10
2009,09,24,15,45,18.10
2009,09,24,15,46,18.10
2009,09,24,15,47,18.10
2009,09,24,15,48,18.10
2009,09,24,15,49,18.10
2009,09,24,15,50,18.10
2009,09,24,15,51,18.10
2009,09,24,15,52,18.10
2009,09,24,15,53,18.20
2009,09,24,15,54,18.20
2009,09,24,15,55,18.20
2009,09,24,15,56,18.10
2009,09,24,15,57,18.10
2009,09,24,15,58,18.10
2009,09,24,15,59,18.10
2009,09,24,16,00,18.20
2009,09,24,16,01,18.20
2009,09,24,16,02,18.30
2009,09,24,16,03,18.30
2009,09,24,16,04,18.30
2009,09,24,16,05,18.30
2009,09,24,16,06,18.30
2009,09,24,16,07,18.30
2009,09,24,16,08,18.30
2009,09,24,16,09,18.30
2009,09,24,16,10,18.30
2009,09,24,16,11,18.30
2009,09,24,16,12,18.30
2009,09,24,16,13,18.40
2009,09,24,16,14,18.40
2009,09,24,16,15,18.40
2009,09,24,16,16,18.40
2009,09,24,16,17,18.40
2009,09,24,16,18,18.30
2009,09,24,16,19,18.30
2009,09,24,16,20,18.30
2009,09,24,16,21,18.30
2009,09,24,16,22,18.30
2009,09,24,16,23,18.30
2009,09,24,16,24,18.30
2009,09,24,16,25,18.30
2009,09,24,16,26,18.30
2009,09,24,16,27,18.40
2009,09,24,16,28,18.40
2009,09,24,16,29,18.30
2009,09,24,16,30,18.40
2009,09,24,16,31,18.40
2009,09,24,16,32,18.50
2009,09,24,16,33,18.50
2009,09,24,16,34,18.50
2009,09,24,16,35,18.50
2009,09,24,16,36,18.50
2009,09,24,16,37,18.50
2009,09,24,16,38,18.50
2009,09,24,16,39,18.50
2009,09,24,16,40,18.50
2009,09,24,16,41,18.50
2009,09,24,16,42,18.50
2009,09,24,16,43,18.50
2009,09,24,16,44,18.50
2009,09,24,16,45,18.50
2009,09,24,16,46,18.60
2009,09,24,16,47,18.60
2009,09,24,16,48,18.70
2009,09,24,16,49,18.70
2009,09,24,16,50,18.70
2009,09,24,16,51,18.70
2009,09,24,16,52,18.70
2009,09,24,16,53,18.70
2009,09,24,16,54,18.70
2009,09,24,16,55,18.70
2009,09,24,16,56,18.70
2009,09,24,16,57,18.70
2009,09,24,16,58,18.80
2009,09,24,16,59,18.80
2009,09,24,17,00,18.90
2009,09,24,17,01,18.90
2009,09,24,17,02,19.00
2009,09,24,17,03,18.90
2009,09,24,17,04,18.90
2009,09,24,17,05,19.00
2009,09,24,17,06,19.00
2009,09,24,17,07,19.00
2009,09,24,17,08,18.90
2009,09,24,17,09,18.90
2009,09,24,17,10,18.90
2009,09,24,17,11,18.90
2009,09,24,17,12,18.90
2009,09,24,17,13,18.90
2009,09,24,17,14,18.90
2009,09,24,17,15,18.90
2009,09,24,17,16,18.90
2009,09,24,17,17,18.90
2009,09,24,17,18,18.90
2009,09,24,17,19,18.90